Weather History for PAPG - November, 2012

Change the Weather History Date:

Sunday, November 4, 2012

  Actual Average Record
Temperature  
Mean Temperature 46 °F -  
Max Temperature 50 °F 40 °F 52 °F (1986)
Min Temperature 41 °F 32 °F 17 °F (1984)
Degree Days  
Heating Degree Days 20    
Moisture  
Dew Point 39 °F    
Average Humidity 79    
Maximum Humidity 87    
Minimum Humidity 62    
Precipitation  
Precipitation 0.00 in - - ()
Sea Level Pressure  
Sea Level Pressure 29.28 in    
Wind  
Wind Speed 7 mph (ESE)    
Max Wind Speed 20 mph    
Max Gust Speed 37 mph    
Visibility 8 miles    
Events      
Averages and records for this station are not official NWS values.
T = Trace of Precipitation, MM = Missing Value Source: NWS Daily Summary

Daily Weather History Graph

Daily Weather History Graph

Search for Another Location

Airport or City:

Trip Planner

Search our weather history database for the weather conditions in past years. The results will help you decide how hot, cold, wet, or windy it might be!

Date:

Astronomy

Nov. 04, 2012 Rise Set
Actual Time 7:09 AM AKST 4:00 PM AKST
Civil Twilight 6:28 AM AKST 4:41 PM AKST
Nautical Twilight 5:42 AM AKST 5:26 PM AKST
Astronomical Twilight 4:58 AM AKST 6:11 PM AKST
Moon 8:35 PM AKST (11/4) 12:10 PM AKST (11/4)
Length of Visible Light 10h 13m
Length of Day
8h 50m
Waning Gibbous, 70% of the Moon is Illuminated
Nov 4
Waning Gibbous
Nov 6
Last Quarter
Nov 13
New
Nov 20
First Quarter
Nov 28
Full

Hourly Weather History & Observations

Time (AKST) Temp. Windchill Dew Point Humidity Pressure Visibility Wind Dir Wind Speed Gust Speed Precip Events Conditions
12:16 AM 41.0 °F - 37.4 °F 87% 29.72 in 10.0 mi Calm Calm - N/A   Overcast
12:36 AM 42.8 °F 39.3 °F 39.2 °F 87% 29.72 in 10.0 mi SSE 5.8 mph - N/A   Overcast
12:56 AM 42.8 °F - 37.4 °F 81% 29.72 in 10.0 mi Calm Calm - N/A   Overcast
1:16 AM 41.0 °F - 37.4 °F 87% 29.72 in 10.0 mi Calm Calm - N/A   Overcast
1:36 AM 41.0 °F - 37.4 °F 87% 29.72 in 8.0 mi Calm Calm - N/A   Overcast
1:56 AM 42.8 °F - 39.2 °F 87% 29.71 in 5.0 mi Calm Calm - N/A   Overcast
1:16 AM 42.8 °F 39.3 °F 39.2 °F 87% 29.70 in 9.0 mi ESE 5.8 mph - N/A   Mostly Cloudy
1:36 AM 42.8 °F 40.1 °F 39.2 °F 87% 29.69 in 10.0 mi East 4.6 mph - N/A   Mostly Cloudy
1:56 AM 42.8 °F 39.3 °F 39.2 °F 87% 29.69 in 10.0 mi ESE 5.8 mph - N/A   Overcast
2:16 AM 44.6 °F 42.2 °F 37.4 °F 76% 29.68 in 10.0 mi SE 4.6 mph - N/A   Overcast
3:36 AM 46.4 °F 42.9 °F 35.6 °F 66% 29.62 in 10.0 mi ESE 6.9 mph 20.7 mph N/A   Overcast
3:56 AM 46.4 °F 40.7 °F 35.6 °F 66% 29.61 in 10.0 mi SE 12.7 mph 24.2 mph N/A   Overcast
4:16 AM 46.4 °F 40.4 °F 35.6 °F 66% 29.60 in 10.0 mi ESE 13.8 mph 23.0 mph N/A   Mostly Cloudy
4:36 AM 44.6 °F 38.8 °F 35.6 °F 71% 29.59 in 10.0 mi SE 11.5 mph 21.9 mph N/A   Overcast
4:56 AM 44.6 °F 39.2 °F 37.4 °F 76% 29.57 in 10.0 mi ESE 10.4 mph 23.0 mph N/A   Overcast
5:16 AM 44.6 °F 38.8 °F 35.6 °F 71% 29.54 in 10.0 mi ESE 11.5 mph 20.7 mph N/A   Overcast
5:36 AM 44.6 °F 40.2 °F 35.6 °F 71% 29.51 in 10.0 mi ESE 8.1 mph - N/A   Overcast
5:56 AM 42.8 °F 36.2 °F 35.6 °F 76% 29.49 in 7.0 mi ESE 12.7 mph 17.3 mph N/A   Overcast
6:16 AM 42.8 °F 38.6 °F 37.4 °F 81% 29.47 in 7.0 mi ESE 6.9 mph 16.1 mph N/A   Overcast
6:36 AM 42.8 °F 39.3 °F 37.4 °F 81% 29.45 in 7.0 mi SE 5.8 mph - N/A   Overcast
6:56 AM 42.8 °F 38.0 °F 37.4 °F 81% 29.42 in 7.0 mi East 8.1 mph - N/A   Overcast
7:16 AM 42.8 °F 38.0 °F 37.4 °F 81% 29.38 in 7.0 mi East 8.1 mph - N/A   Overcast
7:36 AM 42.8 °F 38.0 °F 37.4 °F 81% 29.36 in 7.0 mi ESE 8.1 mph - N/A   Overcast
7:56 AM 42.8 °F 37.0 °F 37.4 °F 81% 29.32 in 5.0 mi ESE 10.4 mph 16.1 mph N/A   Overcast
8:16 AM 42.8 °F 39.3 °F 37.4 °F 81% 29.29 in 5.0 mi East 5.8 mph - N/A   Overcast
8:36 AM 42.8 °F 39.3 °F 37.4 °F 81% 29.25 in 5.0 mi East 5.8 mph - N/A   Overcast
8:56 AM 44.6 °F 40.7 °F 37.4 °F 76% 29.22 in 5.0 mi East 6.9 mph - N/A   Overcast
9:16 AM 46.4 °F 41.5 °F 37.4 °F 71% 29.19 in 5.0 mi East 10.4 mph 18.4 mph N/A   Overcast
9:36 AM 46.4 °F 41.9 °F 37.4 °F 71% 29.15 in 5.0 mi East 9.2 mph 16.1 mph N/A   Overcast
9:56 AM 46.4 °F 41.1 °F 39.2 °F 76% 29.13 in 10.0 mi ESE 11.5 mph - N/A   Overcast
10:16 AM 48.2 °F - 39.2 °F 71% 29.09 in 10.0 mi ESE 11.5 mph 17.3 mph N/A   Overcast
10:36 AM 48.2 °F - 39.2 °F 71% 29.07 in 10.0 mi ESE 8.1 mph 19.6 mph N/A   Overcast
10:56 AM 48.2 °F - 39.2 °F 71% 29.05 in 10.0 mi SE 6.9 mph - N/A   Overcast
11:16 AM 50.0 °F - 37.4 °F 62% 29.03 in 10.0 mi ESE 11.5 mph 19.6 mph N/A   Overcast
11:36 AM 48.2 °F - 39.2 °F 71% 29.01 in 10.0 mi SE 10.4 mph 19.6 mph N/A   Overcast
11:56 AM 48.2 °F - 41.0 °F 76% 29.00 in 10.0 mi ESE 9.2 mph 18.4 mph N/A   Overcast
12:16 PM 48.2 °F - 41.0 °F 76% 29.00 in 10.0 mi ESE 11.5 mph 18.4 mph N/A   Overcast
12:36 PM 46.4 °F 42.4 °F 41.0 °F 81% 29.00 in 10.0 mi SE 8.1 mph 19.6 mph N/A   Overcast
12:56 PM 46.4 °F 40.7 °F 41.0 °F 81% 29.00 in 5.0 mi SSE 12.7 mph 21.9 mph N/A   Overcast
1:16 PM 46.4 °F 42.9 °F 42.8 °F 87% 29.01 in 5.0 mi SE 6.9 mph 25.3 mph N/A   Overcast
1:36 PM 46.4 °F 40.7 °F 42.8 °F 87% 29.00 in 5.0 mi East 12.7 mph 17.3 mph N/A   Overcast
1:56 PM 46.4 °F 45.2 °F 42.8 °F 87% 29.00 in 7.0 mi East 3.5 mph - N/A   Overcast
2:16 PM 46.4 °F 41.1 °F 42.8 °F 87% 28.99 in 7.0 mi East 11.5 mph 20.7 mph N/A   Overcast
2:36 PM 46.4 °F 40.4 °F 41.0 °F 81% 28.98 in 7.0 mi East 13.8 mph 25.3 mph N/A   Overcast
2:56 PM 46.4 °F 40.7 °F 41.0 °F 81% 28.97 in 7.0 mi East 12.7 mph 19.6 mph N/A   Overcast
3:16 PM 46.4 °F 40.7 °F 41.0 °F 81% 28.98 in 7.0 mi East 12.7 mph 24.2 mph N/A   Overcast
3:36 PM 46.4 °F 41.5 °F 41.0 °F 81% 28.98 in 7.0 mi East 10.4 mph 21.9 mph N/A   Overcast
3:56 PM 46.4 °F 40.1 °F 41.0 °F 81% 28.99 in 7.0 mi East 15.0 mph 24.2 mph N/A   Overcast
4:16 PM 46.4 °F 39.0 °F 39.2 °F 76% 28.98 in 5.0 mi East 19.6 mph 29.9 mph N/A   Overcast
4:36 PM 46.4 °F 39.2 °F 39.2 °F 76% 28.99 in 5.0 mi East 18.4 mph 31.1 mph N/A   Overcast
4:56 PM 46.4 °F 39.2 °F 39.2 °F 76% 29.00 in 7.0 mi East 18.4 mph 36.8 mph N/A   Overcast
5:16 PM 46.4 °F 39.5 °F 41.0 °F 81% 29.01 in 7.0 mi ESE 17.3 mph 31.1 mph N/A   Overcast
5:36 PM 46.4 °F 39.5 °F 39.2 °F 76% 29.03 in 7.0 mi ESE 17.3 mph 31.1 mph N/A   Overcast
5:56 PM 46.4 °F 40.4 °F 39.2 °F 76% 29.05 in 7.0 mi ESE 13.8 mph 28.8 mph N/A   Overcast
6:56 PM 44.6 °F 38.1 °F 39.2 °F 81% 29.09 in 7.0 mi East 13.8 mph 20.7 mph N/A   Overcast
7:16 PM 44.6 °F 38.4 °F 39.2 °F 81% 29.11 in 7.0 mi East 12.7 mph 27.6 mph N/A   Overcast
7:36 PM 44.6 °F 41.4 °F 39.2 °F 81% 29.13 in 7.0 mi SE 5.8 mph 21.9 mph N/A   Overcast
7:56 PM 44.6 °F 38.8 °F 39.2 °F 81% 29.15 in 7.0 mi ESE 11.5 mph 19.6 mph N/A   Overcast
8:16 PM 44.6 °F 40.2 °F 39.2 °F 81% 29.18 in 7.0 mi East 8.1 mph - N/A   Overcast
8:36 PM 44.6 °F 41.4 °F 39.2 °F 81% 29.20 in 7.0 mi SE 5.8 mph 17.3 mph N/A   Overcast
8:56 PM 44.6 °F 40.7 °F 39.2 °F 81% 29.23 in 7.0 mi ESE 6.9 mph 19.6 mph N/A   Overcast
9:16 PM 44.6 °F 39.2 °F 39.2 °F 81% 29.26 in 7.0 mi SE 10.4 mph 20.7 mph N/A   Overcast
9:36 PM 44.6 °F 39.2 °F 37.4 °F 76% 29.29 in 7.0 mi SE 10.4 mph 31.1 mph N/A   Overcast
9:56 PM 44.6 °F 41.4 °F 39.2 °F 81% 29.32 in 7.0 mi East 5.8 mph - N/A   Overcast
10:16 PM 44.6 °F 40.7 °F 39.2 °F 81% 29.35 in 8.0 mi East 6.9 mph - N/A   Overcast
10:36 PM 46.4 °F 41.1 °F 39.2 °F 76% 29.38 in 7.0 mi South 11.5 mph 21.9 mph N/A   Overcast
10:56 PM 44.6 °F 36.6 °F 39.2 °F 81% 29.42 in 10.0 mi South 19.6 mph 27.6 mph N/A   Overcast